Time,TemperatureF,DewpointF,PressureIn,WindDirection,WindDirectionDegrees,WindSpeedMPH,WindSpeedGustMPH,Humidity,HourlyPrecipIn,Conditions,Clouds,dailyrainin,SoftwareType,DateUTC
2013-02-08 00:01:00,59.0,55.0,29.90,NNW,335,0.0,0.0,87,0.00,,,0.96,,2013-02-08 06:01:00,
2013-02-08 00:11:00,59.0,55.0,29.90,NNW,335,0.0,0.0,87,0.00,,,0.96,,2013-02-08 06:11:00,
2013-02-08 00:21:00,58.0,54.0,29.91,NNW,335,0.0,0.0,87,0.00,,,0.96,,2013-02-08 06:21:00,
2013-02-08 00:31:00,58.0,54.0,29.91,NNW,335,0.0,0.0,88,0.00,,,0.96,,2013-02-08 06:31:00,
2013-02-08 00:42:00,58.0,54.0,29.91,NNW,335,0.0,0.0,88,0.00,,,0.96,,2013-02-08 06:42:00,
2013-02-08 00:52:00,58.0,54.0,29.91,NNW,335,0.0,0.0,87,0.00,,,0.96,,2013-02-08 06:52:00,
2013-02-08 01:01:00,57.0,53.0,29.91,NNW,335,0.0,0.0,88,0.00,,,0.96,,2013-02-08 07:01:00,
2013-02-08 01:11:00,57.0,53.0,29.91,NNW,335,0.0,0.0,88,0.00,,,0.96,,2013-02-08 07:11:00,
2013-02-08 01:21:00,57.0,53.0,29.91,NNW,335,0.0,0.0,88,0.00,,,0.96,,2013-02-08 07:21:00,
2013-02-08 01:32:00,57.0,53.0,29.91,NNW,335,0.0,0.0,88,0.00,,,0.96,,2013-02-08 07:32:00,
2013-02-08 01:42:00,56.0,52.0,29.91,NNW,335,0.0,0.0,88,0.00,,,0.96,,2013-02-08 07:42:00,
2013-02-08 01:52:00,56.0,52.0,29.91,NNW,335,0.0,0.0,88,0.00,,,0.96,,2013-02-08 07:52:00,
2013-02-08 02:01:00,56.0,52.0,29.91,NNW,335,0.0,0.0,88,0.00,,,0.96,,2013-02-08 08:01:00,
2013-02-08 02:11:00,56.0,52.0,29.91,NNW,335,0.0,0.0,88,0.00,,,0.96,,2013-02-08 08:11:00,
2013-02-08 02:21:00,56.0,52.0,29.91,NNW,335,0.0,0.0,88,0.00,,,0.96,,2013-02-08 08:21:00,
2013-02-08 02:32:00,56.0,52.0,29.91,NNW,335,0.0,0.0,88,0.00,,,0.96,,2013-02-08 08:32:00,
2013-02-08 02:42:00,56.0,52.0,29.91,NNW,335,0.0,0.0,88,0.00,,,0.96,,2013-02-08 08:42:00,
2013-02-08 02:52:00,55.0,52.0,29.92,NNW,335,0.0,0.0,88,0.00,,,0.96,,2013-02-08 08:52:00,
2013-02-08 03:03:00,55.0,52.0,29.92,NNW,335,0.0,0.0,88,0.00,,,0.96,,2013-02-08 09:03:00,
2013-02-08 03:11:00,55.0,52.0,29.92,NNW,335,0.0,0.0,88,0.00,,,0.96,,2013-02-08 09:11:00,
2013-02-08 03:21:00,55.0,52.0,29.92,NNW,335,0.0,0.0,88,0.00,,,0.96,,2013-02-08 09:21:00,
2013-02-08 03:31:00,54.0,51.0,29.92,NNW,335,0.0,0.0,88,0.00,,,0.96,,2013-02-08 09:31:00,
2013-02-08 03:42:00,54.0,51.0,29.92,NNW,335,0.0,0.0,88,0.00,,,0.96,,2013-02-08 09:42:00,
2013-02-08 03:52:00,55.0,52.0,29.92,NNW,335,0.0,0.0,88,0.00,,,0.96,,2013-02-08 09:52:00,
2013-02-08 04:01:00,54.0,51.0,29.93,NNW,335,0.0,0.0,88,0.00,,,0.96,,2013-02-08 10:01:00,
2013-02-08 04:11:00,54.0,51.0,29.93,NNW,335,0.0,0.0,88,0.00,,,0.96,,2013-02-08 10:11:00,
2013-02-08 04:22:00,54.0,51.0,29.93,NNW,335,0.0,0.0,88,0.00,,,0.96,,2013-02-08 10:22:00,
2013-02-08 04:31:00,54.0,51.0,29.93,NNW,335,0.0,0.0,88,0.00,,,0.96,,2013-02-08 10:31:00,
2013-02-08 04:41:00,54.0,51.0,29.93,NNW,335,0.0,0.0,88,0.00,,,0.96,,2013-02-08 10:41:00,
2013-02-08 04:52:00,53.0,50.0,29.93,NNW,335,0.0,0.0,88,0.00,,,0.96,,2013-02-08 10:52:00,
2013-02-08 05:01:00,53.0,50.0,29.93,NNW,335,0.0,0.0,88,0.00,,,0.96,,2013-02-08 11:01:00,
2013-02-08 05:11:00,53.0,50.0,29.93,NNW,335,0.0,0.0,88,0.00,,,0.96,,2013-02-08 11:11:00,
2013-02-08 05:21:00,53.0,50.0,29.94,NNW,335,0.0,0.0,88,0.00,,,0.96,,2013-02-08 11:21:00,
2013-02-08 05:32:00,53.0,50.0,29.95,NNW,335,0.0,0.0,88,0.00,,,0.89,,2013-02-08 11:32:00,
2013-02-08 05:42:00,53.0,50.0,29.95,NNW,335,0.0,0.0,88,0.00,,,0.89,,2013-02-08 11:42:00,
2013-02-08 05:52:00,53.0,50.0,29.96,NNW,335,0.0,0.0,88,0.00,,,0.89,,2013-02-08 11:52:00,
2013-02-08 06:01:00,53.0,50.0,29.96,NNW,335,0.0,0.0,88,0.00,,,0.89,,2013-02-08 12:01:00,
2013-02-08 06:11:00,53.0,50.0,29.96,NNW,335,0.0,0.0,88,0.00,,,0.89,,2013-02-08 12:11:00,
2013-02-08 06:22:00,52.0,49.0,29.97,NNW,335,0.0,0.0,88,0.00,,,0.89,,2013-02-08 12:22:00,
2013-02-08 06:33:00,52.0,49.0,29.98,NNW,335,0.0,0.0,88,0.00,,,0.82,,2013-02-08 12:33:00,
2013-02-08 06:42:00,52.0,49.0,29.98,NNW,335,0.0,0.0,88,0.00,,,0.82,,2013-02-08 12:42:00,
2013-02-08 06:52:00,52.0,49.0,29.98,NNW,335,0.0,0.0,88,0.00,,,0.82,,2013-02-08 12:52:00,
2013-02-08 07:01:00,52.0,49.0,29.99,NNW,335,0.0,0.0,88,0.01,,,0.83,,2013-02-08 13:01:00,
2013-02-08 07:11:00,52.0,49.0,29.99,NNW,335,0.0,0.0,88,0.01,,,0.83,,2013-02-08 13:11:00,
2013-02-08 07:22:00,53.0,50.0,29.99,NNW,335,0.0,0.0,88,0.01,,,0.83,,2013-02-08 13:22:00,
2013-02-08 07:32:00,53.0,50.0,29.99,NNW,335,0.0,1.0,88,0.01,,,0.70,,2013-02-08 13:32:00,
2013-02-08 07:42:00,53.0,50.0,29.99,NNW,335,0.0,1.0,88,0.01,,,0.70,,2013-02-08 13:42:00,
2013-02-08 07:52:00,54.0,51.0,30.00,NNW,335,0.0,0.0,88,0.01,,,0.70,,2013-02-08 13:52:00,
2013-02-08 08:02:00,55.0,52.0,30.01,NNW,335,0.0,0.0,88,0.00,,,0.70,,2013-02-08 14:02:00,
2013-02-08 08:11:00,55.0,52.0,30.01,NNW,335,0.0,0.0,88,0.00,,,0.70,,2013-02-08 14:11:00,
2013-02-08 08:22:00,55.0,52.0,30.01,NNW,335,0.0,0.0,88,0.00,,,0.70,,2013-02-08 14:22:00,
2013-02-08 08:32:00,55.0,52.0,30.01,NNW,335,0.0,0.0,88,0.00,,,0.70,,2013-02-08 14:32:00,
2013-02-08 08:42:00,55.0,52.0,30.01,NNW,335,0.0,0.0,88,0.00,,,0.70,,2013-02-08 14:42:00,
2013-02-08 08:52:00,57.0,53.0,30.01,NNW,335,0.0,0.0,88,0.00,,,0.55,,2013-02-08 14:52:00,
2013-02-08 09:02:00,57.0,53.0,30.02,NNW,335,0.0,0.0,88,0.00,,,0.55,,2013-02-08 15:02:00,
2013-02-08 09:11:00,57.0,53.0,30.02,NNW,335,0.0,0.0,88,0.00,,,0.55,,2013-02-08 15:11:00,
2013-02-08 09:22:00,58.0,54.0,30.02,NNW,335,0.0,0.0,87,0.00,,,0.55,,2013-02-08 15:22:00,
2013-02-08 09:32:00,59.0,55.0,30.03,NNW,335,0.0,0.0,88,0.00,,,0.37,,2013-02-08 15:32:00,
2013-02-08 09:42:00,59.0,55.0,30.03,NNW,335,0.0,0.0,88,0.00,,,0.37,,2013-02-08 15:42:00,
2013-02-08 09:52:00,59.0,55.0,30.03,NNW,335,1.0,4.0,88,0.00,,,0.37,,2013-02-08 15:52:00,
2013-02-08 10:01:00,59.0,55.0,30.03,NNW,335,2.0,3.0,88,0.00,,,0.37,,2013-02-08 16:01:00,
2013-02-08 10:11:00,59.0,55.0,30.03,NNW,335,2.0,3.0,88,0.00,,,0.37,,2013-02-08 16:11:00,
2013-02-08 10:22:00,59.0,55.0,30.03,SE,134,4.0,5.0,88,0.00,,,0.37,,2013-02-08 16:22:00,
2013-02-08 10:32:00,60.0,56.0,30.03,SSE,148,5.0,7.0,88,0.00,,,0.24,,2013-02-08 16:32:00,
2013-02-08 10:42:00,60.0,56.0,30.03,SSE,148,5.0,7.0,88,0.00,,,0.24,,2013-02-08 16:42:00,
2013-02-08 10:52:00,60.0,56.0,30.03,SE,146,5.0,7.0,87,0.00,,,0.24,,2013-02-08 16:52:00,
2013-02-08 11:03:00,60.0,56.0,30.03,SSE,147,2.0,6.0,87,0.00,,,0.24,,2013-02-08 17:03:00,
2013-02-08 11:12:00,60.0,56.0,30.03,SSE,147,2.0,6.0,87,0.00,,,0.24,,2013-02-08 17:12:00,
2013-02-08 11:22:00,61.0,57.0,30.02,SE,143,3.0,7.0,87,0.00,,,0.24,,2013-02-08 17:22:00,
2013-02-08 11:32:00,60.0,56.0,30.02,SSE,161,5.0,7.0,87,0.00,,,0.13,,2013-02-08 17:32:00,
2013-02-08 11:42:00,60.0,56.0,30.02,SSE,161,5.0,7.0,87,0.00,,,0.13,,2013-02-08 17:42:00,
2013-02-08 11:53:00,61.0,57.0,30.02,SSE,159,4.0,8.0,86,0.00,,,0.13,,2013-02-08 17:53:00,
2013-02-08 12:02:00,62.0,58.0,30.01,SW,216,3.0,8.0,86,0.00,,,0.13,,2013-02-08 18:02:00,
2013-02-08 12:12:00,62.0,58.0,30.01,SW,216,3.0,8.0,86,0.00,,,0.13,,2013-02-08 18:12:00,
2013-02-08 12:24:00,62.0,57.0,30.01,South,172,1.0,4.0,85,0.00,,,0.13,,2013-02-08 18:24:00,
2013-02-08 12:34:00,63.0,58.0,30.01,SSW,202,1.0,5.0,85,0.00,,,0.05,,2013-02-08 18:34:00,
2013-02-08 12:43:00,63.0,58.0,30.01,SSW,202,1.0,5.0,85,0.00,,,0.05,,2013-02-08 18:43:00,
2013-02-08 12:52:00,63.0,58.0,30.01,SW,232,4.0,8.0,85,0.00,,,0.05,,2013-02-08 18:52:00,
2013-02-08 13:02:00,63.0,58.0,30.01,SW,235,6.0,9.0,85,0.00,,,0.05,,2013-02-08 19:02:00,
2013-02-08 13:11:00,63.0,58.0,30.01,SW,235,6.0,9.0,85,0.00,,,0.05,,2013-02-08 19:11:00,
2013-02-08 13:22:00,63.0,58.0,30.00,SW,231,7.0,10.0,85,0.00,,,0.05,,2013-02-08 19:22:00,
2013-02-08 13:32:00,63.0,58.0,30.00,WSW,240,6.0,9.0,85,0.00,,,0.01,,2013-02-08 19:32:00,
2013-02-08 13:42:00,63.0,58.0,30.00,WSW,240,6.0,9.0,85,0.00,,,0.01,,2013-02-08 19:42:00,
2013-02-08 13:52:00,64.0,59.0,29.99,WSW,244,7.0,10.0,84,0.00,,,0.01,,2013-02-08 19:52:00,
2013-02-08 14:02:00,64.0,59.0,29.99,WSW,251,9.0,12.0,84,0.00,,,0.01,,2013-02-08 20:02:00,
2013-02-08 14:11:00,64.0,59.0,29.99,WSW,251,9.0,12.0,84,0.00,,,0.01,,2013-02-08 20:11:00,
2013-02-08 14:22:00,63.0,58.0,30.00,WSW,238,9.0,13.0,85,0.00,,,0.01,,2013-02-08 20:22:00,
2013-02-08 14:32:00,63.0,59.0,30.00,WSW,245,6.0,11.0,86,0.00,,,0.01,,2013-02-08 20:32:00,
2013-02-08 14:42:00,63.0,59.0,30.00,WSW,245,6.0,11.0,86,0.00,,,0.01,,2013-02-08 20:42:00,
2013-02-08 14:52:00,63.0,59.0,30.00,WSW,241,9.0,12.0,86,0.00,,,0.01,,2013-02-08 20:52:00,
2013-02-08 15:02:00,63.0,59.0,30.00,WSW,248,7.0,13.0,86,0.00,,,0.01,,2013-02-08 21:02:00,
2013-02-08 15:11:00,63.0,59.0,30.00,WSW,248,7.0,13.0,86,0.00,,,0.01,,2013-02-08 21:11:00,
2013-02-08 15:22:00,63.0,59.0,30.00,WSW,256,9.0,12.0,86,0.00,,,0.01,,2013-02-08 21:22:00,
2013-02-08 15:32:00,63.0,59.0,30.00,WSW,257,5.0,11.0,86,0.00,,,0.01,,2013-02-08 21:32:00,
2013-02-08 15:42:00,63.0,59.0,30.00,WSW,257,5.0,11.0,86,0.00,,,0.01,,2013-02-08 21:42:00,
2013-02-08 15:52:00,64.0,60.0,30.00,WSW,252,5.0,9.0,86,0.00,,,0.01,,2013-02-08 21:52:00,
2013-02-08 16:01:00,64.0,60.0,30.00,WSW,248,8.0,11.0,86,0.00,,,0.01,,2013-02-08 22:01:00,
2013-02-08 16:11:00,64.0,60.0,30.00,WSW,248,8.0,11.0,86,0.00,,,0.01,,2013-02-08 22:11:00,
2013-02-08 16:22:00,64.0,60.0,30.00,WSW,256,7.0,11.0,86,0.00,,,0.01,,2013-02-08 22:22:00,
2013-02-08 16:32:00,65.0,60.0,30.00,West,268,1.0,8.0,85,0.00,,,0.01,,2013-02-08 22:32:00,
2013-02-08 16:42:00,65.0,60.0,30.00,West,268,1.0,8.0,85,0.00,,,0.01,,2013-02-08 22:42:00,
2013-02-08 16:52:00,65.0,60.0,30.00,WSW,254,4.0,8.0,85,0.00,,,0.01,,2013-02-08 22:52:00,
2013-02-08 17:01:00,65.0,60.0,30.00,West,259,0.0,5.0,85,0.00,,,0.01,,2013-02-08 23:01:00,
2013-02-08 17:11:00,65.0,60.0,30.00,West,259,0.0,5.0,85,0.00,,,0.01,,2013-02-08 23:11:00,
2013-02-08 17:21:00,65.0,60.0,30.00,West,259,1.0,6.0,85,0.00,,,0.01,,2013-02-08 23:21:00,
2013-02-08 17:31:00,64.0,60.0,30.01,West,259,4.0,6.0,86,0.00,,,0.01,,2013-02-08 23:31:00,
2013-02-08 17:42:00,64.0,60.0,30.01,West,259,4.0,6.0,86,0.00,,,0.01,,2013-02-08 23:42:00,
2013-02-08 17:52:00,64.0,60.0,30.01,West,259,0.0,6.0,86,0.00,,,0.01,,2013-02-08 23:52:00,
2013-02-08 18:02:00,63.0,59.0,30.01,West,259,0.0,0.0,87,0.00,,,0.01,,2013-02-09 00:02:00,
2013-02-08 18:11:00,63.0,59.0,30.01,West,259,0.0,0.0,87,0.00,,,0.01,,2013-02-09 00:11:00,
2013-02-08 18:21:00,63.0,59.0,30.02,West,259,2.0,5.0,87,0.00,,,0.01,,2013-02-09 00:21:00,
2013-02-08 18:32:00,63.0,59.0,30.03,West,271,0.0,0.0,87,0.00,,,0.01,,2013-02-09 00:32:00,
2013-02-08 18:42:00,63.0,59.0,30.03,West,271,0.0,0.0,87,0.00,,,0.01,,2013-02-09 00:42:00,
2013-02-08 18:52:00,62.0,58.0,30.03,West,271,0.0,1.0,87,0.00,,,0.01,,2013-02-09 00:52:00,
2013-02-08 19:01:00,62.0,58.0,30.03,West,271,0.0,0.0,87,0.00,,,0.01,,2013-02-09 01:01:00,
2013-02-08 19:11:00,62.0,58.0,30.03,West,271,0.0,0.0,87,0.00,,,0.01,,2013-02-09 01:11:00,
2013-02-08 19:21:00,62.0,58.0,30.04,North,5,2.0,5.0,87,0.00,,,0.01,,2013-02-09 01:21:00,
2013-02-08 19:32:00,61.0,57.0,30.05,North,5,3.0,6.0,87,0.00,,,0.01,,2013-02-09 01:32:00,
2013-02-08 19:41:00,61.0,57.0,30.05,North,5,3.0,6.0,87,0.00,,,0.01,,2013-02-09 01:41:00,
2013-02-08 19:52:00,61.0,57.0,30.05,North,355,2.0,6.0,87,0.00,,,0.01,,2013-02-09 01:52:00,
2013-02-08 20:01:00,61.0,56.0,30.06,North,5,0.0,4.0,84,0.00,,,0.01,,2013-02-09 02:01:00,
2013-02-08 20:11:00,61.0,56.0,30.06,North,5,0.0,4.0,84,0.00,,,0.01,,2013-02-09 02:11:00,
2013-02-08 20:21:00,61.0,56.0,30.06,North,5,0.0,3.0,83,0.00,,,0.01,,2013-02-09 02:21:00,
2013-02-08 20:32:00,60.0,55.0,30.07,NNW,344,2.0,5.0,83,0.00,,,0.01,,2013-02-09 02:32:00,
2013-02-08 20:42:00,60.0,55.0,30.07,NNW,344,2.0,5.0,83,0.00,,,0.01,,2013-02-09 02:42:00,
2013-02-08 20:52:00,60.0,55.0,30.08,NE,35,3.0,8.0,83,0.00,,,0.01,,2013-02-09 02:52:00,
2013-02-08 21:01:00,60.0,55.0,30.08,North,5,2.0,8.0,84,0.00,,,0.01,,2013-02-09 03:01:00,
2013-02-08 21:11:00,60.0,55.0,30.08,North,5,2.0,8.0,84,0.00,,,0.01,,2013-02-09 03:11:00,
2013-02-08 21:21:00,60.0,55.0,30.09,North,350,3.0,6.0,84,0.00,,,0.01,,2013-02-09 03:21:00,
2013-02-08 21:32:00,59.0,54.0,30.09,NNW,346,2.0,8.0,85,0.00,,,0.01,,2013-02-09 03:32:00,
2013-02-08 21:42:00,59.0,54.0,30.09,NNW,346,2.0,8.0,85,0.00,,,0.01,,2013-02-09 03:42:00,
2013-02-08 21:53:00,59.0,54.0,30.09,NNW,346,2.0,8.0,85,0.00,,,0.01,,2013-02-09 03:53:00,
2013-02-08 22:02:00,58.0,54.0,30.09,North,349,3.0,10.0,86,0.00,,,0.01,,2013-02-09 04:02:00,
2013-02-08 22:12:00,58.0,54.0,30.09,North,351,4.0,9.0,86,0.00,,,0.01,,2013-02-09 04:12:00,
2013-02-08 22:23:00,58.0,54.0,30.09,North,351,4.0,9.0,86,0.00,,,0.01,,2013-02-09 04:23:00,
2013-02-08 22:32:00,58.0,54.0,30.09,NNE,22,1.0,9.0,86,0.00,,,0.01,,2013-02-09 04:32:00,
2013-02-08 22:42:00,58.0,54.0,30.09,NNE,22,1.0,9.0,86,0.00,,,0.01,,2013-02-09 04:42:00,
2013-02-08 22:52:00,57.0,53.0,30.10,NNE,26,0.0,6.0,87,0.00,,,0.01,,2013-02-09 04:52:00,
2013-02-08 23:02:00,57.0,53.0,30.11,NE,48,0.0,5.0,87,0.00,,,0.01,,2013-02-09 05:02:00,
2013-02-08 23:12:00,57.0,53.0,30.11,NE,48,0.0,5.0,87,0.00,,,0.01,,2013-02-09 05:12:00,
2013-02-08 23:22:00,56.0,52.0,30.11,ENE,69,0.0,5.0,87,0.00,,,0.01,,2013-02-09 05:22:00,
2013-02-08 23:31:00,56.0,52.0,30.11,ENE,69,0.0,0.0,87,0.00,,,0.01,,2013-02-09 05:31:00,
2013-02-08 23:42:00,56.0,52.0,30.11,ENE,69,0.0,0.0,87,0.00,,,0.01,,2013-02-09 05:42:00,
2013-02-08 23:52:00,56.0,52.0,30.11,ENE,69,0.0,0.0,87,0.00,,,0.01,,2013-02-09 05:52:00,